www.pogodaiklimat.ru

Погода и климат >> Архив погоды >> Россия >> Северная Осетия >> Владикавказ


АРХИВ ПОГОДЫ в Владикавказе

Время (UTC), дата Ветер
(напр.,м/с)
 
Видим.   Явления Облачность Т
(С)
Тd
(С)
f
(%)
Тe
(С)
Тes
(С)
Комфортность P
(гПа)
Po
(гПа)
Тmin
(С)
Tmax
(С)
R
(мм)
R24
(мм)
S
(см)
03 17.02 С 1 500 м слаб. снег [диам. отлож. мокр. снега 3 мм] 10/0 300 м
[As op]
-1.6 -3.7 86 -4 -4 по сезону 1020.4 934.7 -2.9 7 13
06 17.02 В 1 4000 м дымка {снег} 10/10 300 м
[Sc]
-1.0 -3.6 82 -3 -3 по сезону 1021.5 935.8
09 17.02 Ю 2 10 км 10/10 600 м
[Sc]
+0.9 -3.1 75 -2 -2 по сезону 1019.0 934.2
12 17.02 З 1 20 км 5/3 1000 м
[Sc Ci fib]
+4.7 -1.5 64 +4 +6 по сезону 1015.6 932.1
15 17.02 Ю 1 10 км 5/0
[Ac lent Ci]
+2.3 -2.3 72 +1 +1 по сезону 1015.1 931.0 +6.3 0.0
18 17.02 Ю 2 10 км 8/0
[Ac und]
+2.4 -2.6 70 -1 -1 по сезону 1014.5 930.5
21 17.02 Ю 2 10 км 10/6 600 м
[Sc Ac As]
+4.6 -4.0 54 +2 +2 тепло 1011.6 928.4
00 18.02 Ю 1 10 км 10/10 600 м
[Sc]
+5.7 -4.2 49 +5 +5 тепло 1009.4 926.7
03 18.02 Ю 1 10 км 3/3 600 м
[Sc]
+2.4 -4.0 63 +1 +1 тепло 1008.5 925.0 +1.7 5
06 18.02 СВ 2 20 км 10/6 600 м
[Sc Ac und]
+4.0 -3.8 57 +2 +2 тепло 1008.8 925.7
09 18.02 ЮЗ 1 10 км 10/10 600 м
[Sc]
+5.0 -2.9 57 +4 +4 тепло 1011.1 928.1
12 18.02 С 1 2000 м ливневой снег 10/10 600 м
[Cb cap]
+1.2 -0.5 88 -1 -1 по сезону 1011.9 927.7
15 18.02 штиль 0 1000 м ливневой снег [диам. отлож. мокр. снега 10 мм] 10/10 600 м
[Cb cap]
+0.2 -0.9 92 -1 -1 по сезону 1013.7 929.1 +5.3 10
18 18.02 З 2 1000 м ливневой снег [диам. отлож. мокр. снега 18 мм] 10/10 600 м
[Cb cap]
-0.6 -1.8 92 -4 -4 по сезону 1017.0 931.9
21 18.02 штиль 0 1000 м ливневой снег [диам. отлож. мокр. снега 21 мм] 10/10 600 м
[Cb cap]
-2.4 -3.7 91 -4 -4 по сезону 1019.1 933.2
00 19.02 СЗ 1 1000 м слаб. ливневой снег [диам. отлож. мокр. снега 21 мм] 10/10 600 м
[Cb cap]
-4.1 -6.4 84 -6 -6 по сезону 1020.5 934.0
03 19.02 штиль 0 2000 м слаб. ливневой снег [диам. отлож. мокр. снега 21 мм] 10/10 600 м
[Cb cap]
-4.3 -6.7 83 -5 -5 по сезону 1021.8 935.1 -4.6 10 20
06 19.02 З 1 20 км {ливн. осадки} 6/6 600 м
[Sc]
-2.2 -6.2 74 -4 -3 по сезону 1023.3 937.1
09 19.02 штиль 0 20 км 3/3 600 м
[Sc]
+1.2 -4.4 66 +1 +8 по сезону 1023.0 937.8
12 19.02 З 1 20 км 3/3 600 м
[Sc]
+1.4 -7.3 52 0 +3 по сезону 1024.5 939.3
15 19.02 штиль 0 10 км ясно -1.9 -5.7 75 -3 -3 по сезону 1027.2 940.7 +4.5 0.0
18 19.02 Ю 1 10 км ясно -4.0 -7.2 78 -6 -6 по сезону 1029.2 941.9
21 19.02 штиль 0 10 км ясно -6.7 -8.6 86 -8 -8 прохладно 1030.5 942.2
00 20.02 Ю 1 10 км ясно -7.4 -9.5 85 -10 -10 прохладно 1028.8 940.5
03 20.02 штиль 0 10 км ясно -8.1 -10.2 85 -9 -9 прохладно 1027.6 939.2 -8.4 12
06 20.02 штиль 0 50 км ясно +0.1 -8.3 53 -0 +4 по сезону 1023.8 938.3
09 20.02 СЗ 2 50 км ясно +2.9 -7.1 48 +1 +9 опасность
простуды
1021.4 936.8
12 20.02 З 2 50 км ясно +4.8 -6.0 45 +3 +6 по сезону 1019.6 935.8
15 20.02 Ю 1 20 км ясно +0.7 -5.1 65 -1 -1 по сезону 1020.3 935.2 +5.3
18 20.02 Ю 1 10 км ясно -2.1 -7.2 68 -4 -4 по сезону 1020.5 934.6
21 20.02 Ю 1 10 км ясно -3.2 -8.2 68 -5 -5 по сезону 1020.0 933.8
00 21.02 Ю 1 10 км ясно -4.6 -8.8 72 -7 -7 по сезону 1020.5 933.8
03 21.02 Ю 1 10 км ясно -4.4 -10.0 65 -6 -6 по сезону 1020.2 933.6 -5.0 10
06 21.02 Ю 1 50 км ясно +3.3 -9.9 37 +3 +7 тепло 1017.7 933.6
09 21.02 С 1 50 км ясно +9.0 -11.5 22 +9 +19 опасность
простуды
1014.7 932.4
12 21.02 С 1 50 км ясно +10.5 -12.6 18 +11 +15 тепло 1013.0 931.2
15 21.02 штиль 0 10 км 1/0
[Ac lent]
+4.3 -8.8 38 +4 +4 тепло 1015.2 931.5 +11.6
18 21.02 ЮВ 1 10 км 8/0
[Cs]
+1.0 -7.3 54 -0 -0 по сезону 1016.8 932.1
21 21.02 Ю 1 10 км 1/0
[Cs]
-0.8 -7.2 62 -2 -2 по сезону 1018.7 933.3
00 22.02 ЮВ 1 10 км ясно -2.2 -7.3 68 -4 -4 по сезону 1019.0 933.2
03 22.02 штиль 0 10 км ясно -3.1 -7.9 69 -4 -4 по сезону 1018.6 932.5 -3.5 4
06 22.02 штиль 0 20 км 6/0
[Ac As Ci]
+4.1 -7.8 42 +4 +7 тепло 1017.6 933.7 -4.0
09 22.02 В 3 20 км 8/3 1000 м
[Sc Ac und Ci]
+5.2 -5.8 45 +3 +6 по сезону 1016.3 932.8
12 22.02 В 2 20 км 8/6 600 м
[Sc Ac und]
+4.9 -4.0 53 +3 +4 по сезону 1016.4 932.9
15 22.02 В 2 10 км 10/6 600 м
[Sc Ac As]
+3.1 -3.4 62 +1 +1 по сезону 1018.6 934.4 +6.6
18 22.02 штиль 0 10 км 8/8 600 м
[Sc]
+0.9 -3.8 71 0 0 по сезону 1020.0 935.1
21 22.02 штиль 0 10 км 3/3 600 м
[Sc]
-1.7 -4.2 83 -3 -3 по сезону 1020.4 934.6
00 23.02 ЮЗ 1 10 км 3/3 600 м
[Sc]
-2.5 -4.8 84 -5 -5 по сезону 1021.0 934.9
03 23.02 штиль 0 10 км ясно -3.4 -5.4 86 -4 -4 по сезону 1022.8 936.3 -3.6 2
06 23.02 Ю 1 20 км 6/0
[Ac trans Ci fib]
+2.6 -3.3 65 +1 +5 по сезону 1021.4 936.9
09 23.02 СЗ 1 20 км 10/0
[Ci]
+7.6 -2.7 48 +7 +12 тепло 1019.9 936.9
12 23.02 С 1 20 км 6/0
[Ac trans Ci fib]
+9.3 -2.5 43 +9 +12 тепло 1019.2 936.7
15 23.02 З 2 10 км 9/5 600 м
[Sc Ac trans]
+5.1 -1.0 65 +3 +3 по сезону 1021.9 938.0 +9.5
18 23.02 З 2 10 км 6/6 600 м
[Sc]
+1.5 -1.9 78 -2 -2 по сезону 1024.4 939.3
21 23.02 штиль 0 10 км ясно -0.3 -2.5 85 -1 -1 по сезону 1025.9 940.1
00 24.02 штиль 0 10 км 10/10 600 м
[Sc]
+0.2 -1.6 88 -1 -1 по сезону 1027.4 941.6

 

Местоположение метеостанции Владикавказ (Северная Осетия, Россия): широта 43.03 долгота 44.68 высота над уровнем моря 703 м.

В архиве по умолчанию представлена погода в Владикавказе за последнюю неделю. Архивные данные за месяц целиком и за предыдущие месяцы, начиная с января 2011 года, Вы можете получить, выбрав интересующий диапазон дат из раскрывающегося списка и нажав кнопку "Ввод!".


*Определитесь, кто Вы:
робот инопланетянин человек

Внимание! Время в таблицах - всемирное. Для получения местного времени необходимо прибавить поправку, которая равна 3 ч.

Смотрите также архив погоды в соседних городах и на ближайших метеорологических станциях:

Погода в Назрани (Ингушетия, Россия) (19 км)
Погода в Алагире (Северная Осетия, Россия) (35 км)
Погода на Рокском Перевале (Северная Осетия, Россия) (66 км)
Погода в Наре (Северная Осетия, Россия) (68 км)
Погода в Пасанаури (Грузия) (76 км)
Погода в Моздоке (Северная Осетия, Россия) (78 км)
Погода в Шатое (Чечня, Россия) (83 км)
Погода в Наурской (Чечня, Россия) (86 км)
Погода в Грозном (Чечня, Россия) (88 км)
Погода в Прохладный (Кабардино-Балкария, Россия) (95 км)

Пояснения к столбцам:

Ветер - указаны скорость ветра в м/с - средняя за 10 мин, порывы в срок и между сроками (в фигурных скобках) и направление, откуда дует ветер: С - северный, СВ - северо-восточный, В - восточный, ЮВ - юго-восточный, Ю - южный, ЮЗ - юго-западный, З - западный, СЗ - северо-западный.
Видимость - горизонтальная дальность видимости в метрах или километрах. При видимости от 1 до 10 км при отсутствии осадков обычно наблюдается дымка, при ухудшении видимости до 1 км и менее - туман. В сухую погоду видимость может ухудшаться дымом, пылью или мглою.
Явления - указаны атмосферные явления, наблюдавшиеся в срок или в последний час перед сроком; фигурными скобками обозначены явления, наблюдавшиеся между сроками (за 1-3 часа до срока); квадратными скобками обозначены град или гололедные отложения с указанием их диаметра в мм.
Облачность - указаны через наклонную черту общая и нижняя облачность в баллах и высота нижней границы облаков в метрах; квадратными скобками обозначены формы облаков: Ci - перистые, Cs - перисто-слоистые, Cc - перисто-кучевые, Ac - высококучевые, As - высокослоистые, Sc - слоисто-кучевые, Ns - слоисто-дождевые, Cu - кучевые, Cb - кучево-дождевые. Подробнее классификацию облаков см. в Атласе облаков (PDF).
T - Температура воздуха - температура, измеренная на высоте 2 м над землей.
Td - Температура точки росы - температура, при понижении до которой содержащийся в воздухе водяной пар достигнет насыщения.
f - Относительная влажность воздуха - влажноcть воздуха, измеренная на высоте 2 м над землей.
Te - Эффективная температура - температура, которую ощущает одетый по сезону человек в тени. Характеристика душности погоды. При расчете учитывается влияние влажности воздуха и скорости ветра на теплоощущения человека.
Tes - Эффективная температура на солнце - температура, которую ощущает человек, с поправкой на солнечный нагрев. Характеристика знойности погоды. Зависит от высоты солнца над горизонтом, облачности и скорости ветра. Ночью, в пасмурную погоду, а также при ветре 12 м/с и более поправка равна нулю.
P - Атмосферное давление - приведенное к уровню моря атмосферное давление.
Po - Атмосферное давление - измеренное на уровне метеостанции атмосферное давление.
Tmin - Минимальная температура - минимум температуры воздуха на высоте 2 м над землей.
Tmax - Максимальная температура - максимум температуры воздуха на высоте 2 м над землей.
R - Количество осадков - Количество выпавших осадков за период времени, мм. При наведении курсора мыши на число - период времени, за который выпало указанное количество осадков.
R24 - Количество осадков - Количество выпавших осадков за 24 часа, мм.
S - Снежный покров - Высота снежного покрова, см. При наведении курсора мыши на число - состояние снежного покрова и степень покрытия местности в баллах.